Location: Bougoudala
(13.2282°N, 4.9477°W)
Time: 11:34:12
(UTC+00:00)

Cosmos 1943 - Pass Details

Date: 29 January 2020
Orbit: 833 x 850 km, 71.0° (Epoch: 22 February)

Event Time Altitude Azimuth Distance (km) Brightness Sun altitude
Rises 20:27:35 0° 337° (NNW) 3,392 6.5 -31.0°
Reaches altitude 10° 20:30:03 10° 333° (NNW) 2,460 5.7 -31.6°
Enters shadow 20:34:00 43° 308° (NW) 1,176 4.1 -32.5°
Exits shadow 20:42:35 - 175° (S) 3,008 6.1 -34.5°
Sets 20:43:37 0° 173° (S) 3,402 6.4 -34.8°
